Weather History for LIMU - October, 2012

Change the Weather History Date:

Monday, October 8, 2012

  Actual Average Record
Temperature  
Mean Temperature 69 °F -  
Max Temperature 74 °F 64 °F 77 °F (1997)
Min Temperature 64 °F 55 °F 55 °F (2003)
Cooling Degree Days 4    
Growing Degree Days 19 (Base 50)    
Moisture  
Dew Point 62 °F    
Average Humidity 78    
Maximum Humidity 83    
Minimum Humidity 73    
Precipitation  
Precipitation 0.00 in 0.12 in - ()
Sea Level Pressure  
Sea Level Pressure 29.99 in    
Wind  
Wind Speed 11 mph ()    
Max Wind Speed 18 mph    
Max Gust Speed -    
Visibility 7.2 miles    
Events      
Averages and records for this station are not official NWS values.
T = Trace of Precipitation, MM = Missing Value Source: Averaged Metar Reports

Daily Weather History Graph

Daily Weather History Graph

Search for Another Location

Airport or City:

Trip Planner

Search our weather history database for the weather conditions in past years. The results will help you decide how hot, cold, wet, or windy it might be!

Date:

Astronomy

Oct. 08, 2012 Rise Set
Actual Time 7:33 AM CEST 6:55 PM CEST
Civil Twilight 7:04 AM CEST 7:24 PM CEST
Nautical Twilight 6:31 AM CEST 7:57 PM CEST
Astronomical Twilight 5:57 AM CEST 8:30 PM CEST
Moon No Moon Rise 2:46 PM CEST (10/8)
Length of Visible Light 12h 19m
Length of Day
11h 21m
Waning Gibbous, 49% of the Moon is Illuminated
Oct 8
Waning Gibbous
Oct 15
New
Oct 22
First Quarter
Oct 29
Full
Nov 7
Last Quarter

Hourly Weather History & Observations

Time (CEST) Temp. Dew Point Humidity Pressure Visibility Wind Dir Wind Speed Gust Speed Precip Events Conditions
12:55 AM 66.2 °F 59.0 °F 78% 29.95 in 6.2 mi North 17.3 mph - N/A   Mostly Cloudy
1:55 AM 66.2 °F 59.0 °F 78% 29.95 in 6.2 mi North 18.4 mph - N/A   Scattered Clouds
2:00 AM 66 °F 59 °F 73% 29.96 in 12 mi North 18.4 mph - -   Partly Cloudy
3:55 AM 66.2 °F 59.0 °F 78% 29.98 in 6.2 mi North 13.8 mph - N/A   Scattered Clouds
4:55 AM 66.2 °F 59.0 °F 78% 29.98 in - North 16.1 mph - N/A   Clear
5:55 AM 64.4 °F 57.2 °F 77% 29.95 in 6.2 mi North 17.3 mph - N/A   Mostly Cloudy
6:55 AM 66.2 °F 59.0 °F 78% 29.98 in 6.2 mi North 16.1 mph - N/A   Partly Cloudy
7:55 AM 66.2 °F 59.0 °F 78% 29.98 in 6.2 mi NNE 15.0 mph - N/A   Scattered Clouds
8:00 AM 65 °F 58 °F 73% 29.98 in 12 mi NNE 15.0 mph - -   Partly Cloudy
8:55 AM 66.2 °F 59.0 °F 78% 30.01 in 6.2 mi North 12.7 mph - N/A   Partly Cloudy
9:55 AM 69.8 °F 62.6 °F 78% 30.04 in 6.2 mi NNE 10.4 mph - N/A   Partly Cloudy
10:55 AM 71.6 °F 64.4 °F 78% 30.04 in 6.2 mi NNE 8.1 mph - N/A   Partly Cloudy
11:55 AM 73.4 °F 64.4 °F 73% 30.04 in 6.2 mi ENE 6.9 mph - N/A   Partly Cloudy
12:55 PM 73.4 °F 66.2 °F 78% 30.04 in 6.2 mi SE 5.8 mph - N/A   Scattered Clouds
1:55 PM 73.4 °F 68.0 °F 83% 30.04 in 6.2 mi North 4.6 mph - N/A   Scattered Clouds
2:00 PM 73 °F 68 °F 78% 30.03 in 12 mi North 4.6 mph - -   Partly Cloudy
2:55 PM 71.6 °F 66.2 °F 83% 30.04 in 6.2 mi ESE 4.6 mph - N/A   Scattered Clouds
3:55 PM 71.6 °F 66.2 °F 83% 30.01 in 6.2 mi SSW 9.2 mph - N/A   Partly Cloudy
4:55 PM 71.6 °F 66.2 °F 83% 30.01 in 6.2 mi SW 11.5 mph - N/A   Partly Cloudy
5:55 PM 71.6 °F 66.2 °F 83% 29.98 in - SW 11.5 mph - N/A   Clear
6:55 PM 69.8 °F 62.6 °F 78% 29.98 in - SW 10.4 mph - N/A   Clear
7:55 PM 68.0 °F 62.6 °F 83% 29.98 in 6.2 mi WSW 9.2 mph - N/A   Partly Cloudy
8:00 PM 68 °F 62 °F 76% 29.97 in 12 mi WSW 9.2 mph - -   Scattered Clouds
8:55 PM 68.0 °F 60.8 °F 78% 29.98 in 6.2 mi SW 10.4 mph - N/A   Mostly Cloudy
9:55 PM 68.0 °F 60.8 °F 78% 29.98 in 6.2 mi SW 8.1 mph - N/A   Scattered Clouds
10:55 PM 68.0 °F 60.8 °F 78% 29.98 in 6.2 mi SW 9.2 mph - N/A   Scattered Clouds
11:55 PM 68.0 °F 60.8 °F 78% 29.95 in 6.2 mi SW 6.9 mph - N/A   Scattered Clouds